| time (UTC) | temp C | wind direction | speed KPH | gust KPH | rain 1hr cm | rain 24hr cm | rain mn cm | humidity % | barometer mb |
| 20260906194558 | 26 | 105 | 12.9 | 0.0 | 0.00 | 0.00 | 0.51 | 51 | 1011.6 |
| 20260906193050 | 25 | 89 | 12.9 | 0.0 | 0.00 | 0.00 | 0.51 | 53 | 1011.9 |
| 20260906191512 | 24 | 93 | 20.9 | 0.0 | 0.00 | 0.00 | 0.51 | 55 | 1012.2 |
| 20260906190031 | 23 | 90 | 17.7 | 0.0 | 0.00 | 0.00 | 0.51 | 58 | 1012.6 |
| 20260906184624 | 23 | 71 | 17.7 | 0.0 | 0.00 | 0.00 | 0.51 | 57 | 1012.6 |
| 20260906183004 | 22 | 79 | 11.3 | 0.0 | 0.00 | 0.00 | 0.00 | 60 | 1012.9 |
| 20260906181524 | 22 | 29 | 8.0 | 0.0 | 0.00 | 0.00 | 0.00 | 62 | 1013.4 |
| 20260906180040 | 22 | 350 | 6.4 | 0.0 | 0.00 | 0.00 | 0.00 | 64 | 1013.9 |
| 20260906174558 | 21 | 49 | 9.7 | 0.0 | 0.00 | 0.00 | 0.00 | 69 | 1013.7 |
| 20260906173010 | 20 | 38 | 14.5 | 0.0 | 0.00 | 0.00 | 0.00 | 68 | 1014.0 |
| 20260906171526 | 20 | 26 | 12.9 | 0.0 | 0.00 | 0.00 | 0.00 | 68 | 1014.2 |
| 20260906170048 | 20 | 349 | 12.9 | 0.0 | 0.00 | 0.00 | 0.00 | 66 | 1014.7 |
| 20260906164552 | 20 | 312 | 8.0 | 0.0 | 0.00 | 0.00 | 0.00 | 65 | 1014.8 |
| 20260906163108 | 20 | 343 | 4.8 | 0.0 | 0.00 | 0.00 | 0.00 | 64 | 1015.4 |
| 20260906161617 | 20 | 279 | 1.6 | 0.0 | 0.00 | 0.00 | 0.00 | 62 | 1015.2 |
| 20260906160002 | 21 | 260 | 3.2 | 0.0 | 0.00 | 0.00 | 0.00 | 61 | 1015.2 |
| 20260906154512 | 21 | 304 | 1.6 | 0.0 | 0.00 | 0.00 | 0.00 | 61 | 1014.7 |
| 20260906153031 | 21 | 73 | 14.5 | 0.0 | 0.00 | 0.00 | 0.00 | 60 | 1014.4 |
| 20260906151544 | 21 | 66 | 11.3 | 0.0 | 0.00 | 0.00 | 0.00 | 61 | 1014.1 |
| 20260906150027 | 21 | 117 | 3.2 | 0.0 | 0.00 | 0.00 | 0.00 | 61 | 1014.2 |
| 20260906144537 | 21 | 69 | 4.8 | 0.0 | 0.00 | 0.00 | 0.00 | 59 | 1013.2 |
| 20260906143058 | 21 | 141 | 1.6 | 0.0 | 0.00 | 0.00 | 0.00 | 59 | 1013.6 |
| 20260906141623 | 21 | 142 | 3.2 | 0.0 | 0.00 | 0.00 | 0.00 | 58 | 1013.7 |
| 20260906140012 | 22 | 116 | 6.4 | 0.0 | 0.00 | 0.00 | 0.00 | 58 | 1013.1 |
| 20260906134511 | 21 | 346 | 1.6 | 0.0 | 0.00 | 0.00 | 0.00 | 57 | 1013.0 |
| 20260906133029 | 21 | 345 | 0.0 | 0.0 | 0.00 | 0.00 | 0.00 | 57 | 1012.7 |
| 20260906131545 | 21 | 345 | 1.6 | 0.0 | 0.00 | 0.00 | 0.00 | 56 | 1012.4 |
| 20260906130112 | 21 | 337 | 0.0 | 0.0 | 0.00 | 0.00 | 0.00 | 56 | 1011.9 |
| 20260906124610 | 21 | 313 | 1.6 | 0.0 | 0.00 | 0.00 | 0.00 | 55 | 1012.0 |
| 20260906123029 | 22 | 274 | 1.6 | 0.0 | 0.00 | 0.00 | 0.00 | 55 | 1011.8 |
| 20260906121531 | 22 | 278 | 3.2 | 0.0 | 0.00 | 0.00 | 0.00 | 55 | 1011.8 |
| 20260906120036 | 22 | 245 | 6.4 | 0.0 | 0.00 | 0.00 | 0.00 | 57 | 1011.4 |
| 20260906114612 | 23 | 219 | 4.8 | 0.0 | 0.00 | 0.00 | 0.00 | 62 | 1011.3 |
| 20260906113011 | 23 | 213 | 1.6 | 0.0 | 0.00 | 0.00 | 0.00 | 65 | 1011.3 |
| 20260906111517 | 22 | 234 | 0.0 | 0.0 | 0.00 | 0.00 | 0.00 | 66 | 1010.8 |
| 20260906110039 | 22 | 291 | 3.2 | 0.0 | 0.00 | 0.00 | 0.00 | 66 | 1010.8 |
| 20260906104532 | 22 | 178 | 3.2 | 0.0 | 0.00 | 0.00 | 0.00 | 65 | 1010.1 |
| 20260906103050 | 22 | 128 | 4.8 | 0.0 | 0.00 | 0.00 | 0.00 | 65 | 1009.4 |
| 20260906101549 | 22 | 134 | 3.2 | 0.0 | 0.00 | 0.00 | 0.00 | 65 | 1009.5 |
| 20260906100107 | 22 | 145 | 3.2 | 0.0 | 0.00 | 0.00 | 0.00 | 65 | 1009.4 |
| 20260906094512 | 22 | 145 | 3.2 | 0.0 | 0.00 | 0.00 | 0.00 | 64 | 1009.7 |
| 20260906093010 | 22 | 136 | 1.6 | 0.0 | 0.00 | 0.00 | 0.00 | 64 | 1009.6 |
| 20260906091527 | 23 | 134 | 3.2 | 0.0 | 0.00 | 0.00 | 0.00 | 64 | 1009.5 |
| 20260906090046 | 23 | 121 | 4.8 | 0.0 | 0.00 | 0.00 | 0.00 | 63 | 1009.4 |
| 20260906084556 | 23 | 126 | 4.8 | 0.0 | 0.00 | 0.00 | 0.00 | 63 | 1009.3 |
| 20260906083009 | 23 | 130 | 3.2 | 0.0 | 0.00 | 0.00 | 0.00 | 62 | 1009.2 |
| 20260906081510 | 23 | 146 | 4.8 | 0.0 | 0.00 | 0.00 | 0.00 | 62 | 1009.5 |
| 20260906080031 | 23 | 159 | 6.4 | 0.0 | 0.00 | 0.00 | 0.00 | 61 | 1010.0 |
| 20260906074544 | 23 | 115 | 4.8 | 0.0 | 0.00 | 0.00 | 0.00 | 61 | 1009.9 |
| 20260906073057 | 23 | 127 | 4.8 | 0.0 | 0.00 | 0.00 | 0.00 | 61 | 1009.8 |
| 20260906071513 | 23 | 149 | 6.4 | 0.0 | 0.00 | 0.00 | 0.00 | 60 | 1009.8 |
| 20260906070001 | 23 | 137 | 6.4 | 0.0 | 0.00 | 0.00 | 0.00 | 60 | 1010.0 |
| 20260906064532 | 24 | 138 | 6.4 | 0.0 | 0.00 | 0.00 | 0.00 | 59 | 1010.0 |
| 20260906063028 | 24 | 140 | 6.4 | 0.0 | 0.00 | 0.00 | 0.00 | 59 | 1010.1 |
| 20260906061534 | 24 | 142 | 6.4 | 0.0 | 0.00 | 0.00 | 0.00 | 59 | 1010.3 |
| 20260906060043 | 24 | 148 | 4.8 | 0.0 | 0.00 | 0.00 | 0.00 | 59 | 1010.5 |
| 20260906054542 | 24 | 113 | 6.4 | 0.0 | 0.00 | 0.00 | 0.00 | 59 | 1010.5 |
| 20260906053105 | 24 | 113 | 8.0 | 0.0 | 0.00 | 0.00 | 0.00 | 58 | 1010.5 |
| 20260906051610 | 24 | 111 | 9.7 | 0.0 | 0.00 | 0.00 | 0.00 | 58 | 1010.3 |
| 20260906050056 | 24 | 107 | 8.0 | 0.0 | 0.00 | 0.00 | 0.00 | 59 | 1011.0 |
| 20260906044610 | 24 | 105 | 8.0 | 0.0 | 0.00 | 0.00 | 0.03 | 59 | 1011.0 |
| 20260906043023 | 25 | 117 | 9.7 | 0.0 | 0.00 | 0.00 | 0.03 | 59 | 1011.0 |
| 20260906041523 | 24 | 109 | 8.0 | 0.0 | 0.00 | 0.00 | 0.03 | 58 | 1011.2 |
| 20260906040051 | 24 | 123 | 6.4 | 0.0 | 0.00 | 0.00 | 0.03 | 58 | 1011.2 |
| 20260906034609 | 25 | 118 | 4.8 | 0.0 | 0.00 | 0.00 | 0.03 | 57 | 1011.2 |
| 20260906033005 | 25 | 122 | 4.8 | 0.0 | 0.00 | 0.00 | 0.03 | 56 | 1011.1 |
| 20260906031518 | 25 | 130 | 3.2 | 0.0 | 0.00 | 0.00 | 0.03 | 56 | 1011.1 |
| 20260906030023 | 25 | 113 | 6.4 | 0.0 | 0.00 | 0.00 | 0.03 | 57 | 1011.1 |
| 20260906024532 | 25 | 82 | 6.4 | 0.0 | 0.00 | 0.00 | 0.03 | 56 | 1011.1 |
| 20260906023039 | 25 | 81 | 4.8 | 0.0 | 0.00 | 0.00 | 0.03 | 57 | 1011.1 |
| 20260906021541 | 25 | 82 | 4.8 | 0.0 | 0.00 | 0.00 | 0.03 | 56 | 1010.8 |
| 20260906020041 | 26 | 82 | 4.8 | 0.0 | 0.00 | 0.00 | 0.03 | 56 | 1010.6 |
| 20260906014554 | 26 | 82 | 6.4 | 0.0 | 0.00 | 0.00 | 0.03 | 56 | 1010.0 |
| 20260906013047 | 26 | 119 | 4.8 | 0.0 | 0.00 | 0.00 | 0.03 | 55 | 1009.7 |
| 20260906011606 | 27 | 120 | 4.8 | 0.0 | 0.00 | 0.00 | 0.03 | 55 | 1009.1 |
| 20260906010020 | 27 | 126 | 3.2 | 0.0 | 0.00 | 0.00 | 0.03 | 54 | 1009.0 |
| 20260906004526 | 28 | 129 | 4.8 | 0.0 | 0.00 | 0.00 | 0.03 | 54 | 1008.6 |
| 20260906003024 | 28 | 148 | 6.4 | 0.0 | 0.00 | 0.00 | 0.03 | 54 | 1008.6 |
| 20260906001530 | 29 | 151 | 6.4 | 0.0 | 0.00 | 0.00 | 0.03 | 53 | 1008.3 |
| 20260906000053 | 29 | 159 | 4.8 | 0.0 | 0.00 | 0.00 | 0.03 | 52 | 1008.5 |
| 20260905234609 | 30 | 182 | 6.4 | 0.0 | 0.00 | 0.00 | 0.03 | 52 | 1008.4 |
| 20260905233005 | 30 | 180 | 9.7 | 0.0 | 0.00 | 0.00 | 0.03 | 51 | 1008.1 |
| 20260905231521 | 31 | 173 | 17.7 | 0.0 | 0.00 | 0.00 | 0.03 | 49 | 1007.9 |
| 20260905230029 | 31 | 180 | 12.9 | 0.0 | 0.00 | 0.00 | 0.03 | 48 | 1007.7 |
| 20260905224537 | 31 | 152 | 16.1 | 0.0 | 0.00 | 0.00 | 0.03 | 46 | 1007.7 |
| 20260905223044 | 31 | 213 | 19.3 | 0.0 | 0.00 | 0.00 | 0.03 | 45 | 1007.8 |
| 20260905221551 | 32 | 169 | 17.7 | 0.0 | 0.00 | 0.00 | 0.03 | 45 | 1007.7 |
| 20260905220058 | 32 | 183 | 24.1 | 0.0 | 0.00 | 0.00 | 0.03 | 44 | 1007.7 |
| 20260905214603 | 32 | 183 | 22.5 | 0.0 | 0.00 | 0.00 | 0.03 | 43 | 1007.9 |
| 20260905213108 | 32 | 178 | 22.5 | 0.0 | 0.00 | 0.00 | 0.03 | 43 | 1008.0 |
| 20260905211611 | 32 | 182 | 20.9 | 0.0 | 0.00 | 0.00 | 0.03 | 42 | 1007.6 |
| 20260905210010 | 33 | 150 | 19.3 | 0.0 | 0.00 | 0.00 | 0.03 | 41 | 1007.6 |
| 20260905204525 | 33 | 163 | 19.3 | 0.0 | 0.00 | 0.00 | 0.03 | 40 | 1008.0 |
| 20260905203028 | 33 | 173 | 19.3 | 0.0 | 0.00 | 0.00 | 0.03 | 40 | 1007.7 |
| 20260905201549 | 32 | 180 | 20.9 | 0.0 | 0.00 | 0.00 | 0.03 | 43 | 1007.7 |
| 20260905200100 | 32 | 144 | 22.5 | 0.0 | 0.00 | 0.00 | 0.03 | 38 | 1008.1 |